Location: Eitze
(52.9840°N, 9.6894°E)
Time: 23:34:47
(UTC+00:00)

NOSS 3-1 (C) - Pass Details

Date: 19 May 2025
Orbit: 632 x 1571 km, 63.4° (Epoch: 12 June)

Event Time Altitude Azimuth Distance (km) Brightness Sun altitude
Rises 22:07:50 0° 242° (WSW) 3,064 6.0 -15.5°
Reaches altitude 10° 22:10:01 10° 246° (WSW) 2,225 5.3 -15.6°
Maximum altitude 22:15:00 59° 326° (NNW) 957 3.8 -15.8°
Drops below altitude 10° 22:21:14 10° 47° (NE) 2,762 6.3 -16.0°
Sets 22:24:13 0° 51° (NE) 3,873 7.0 -16.1°
